Location: Limoges
(45.8354°N, 1.2645°E)
Time: 19:01:38
(UTC+02:00)

Vanguard 2 Rocket - Pass Details

Date: 25 February 2024
Orbit: 555 x 3307 km, 32.9° (Epoch: 11 April)

Event Time Altitude Azimuth Distance (km) Brightness Sun altitude
Rises 21:17:00 0° 273° (W) 6,202 12.3 -28.7°
Reaches altitude 10° 21:21:41 10° 263° (W) 5,538 11.6 -29.4°
Maximum altitude 21:34:57 27° 214° (SW) 4,842 10.6 -31.6°
Enters shadow 21:49:15 11° 168° (SSE) 6,091 10.8 -33.9°
